Location: Brompton
(51.4000°N, 0.5333°E)
Time: 04:05:39
(UTC+00:00)

Cosmos 1536 - Pass Details

Date: 01 October 2021
Orbit: 539 x 558 km, 82.5° (Epoch: 19 October)

Event Time Altitude Azimuth Distance (km) Brightness Sun altitude
Rises 01:53:47 0° 3° (N) 2,712 7.0 -35.1°
Reaches altitude 10° 01:56:54 10° 30° (NNE) 1,813 6.2 -34.8°
Enters shadow 01:59:00 14° 62° (ENE) 1,573 5.8 -34.6°
